Location: Corsier
(46.2637°N, 6.2238°E)
Time: 00:42:19
(UTC+00:00)

Cosmos 2084 Rocket - Pass Details

Date: 07 June 2020
Orbit: 557 x 624 km, 62.8° (Epoch: 11 July)

Event Time Altitude Azimuth Distance (km) Brightness Sun altitude
Rises 00:06:15 0° 320° (NW) 2,871 7.6 -20.6°
Reaches altitude 10° 00:08:31 10° 322° (NW) 1,973 6.7 -20.5°
Maximum altitude 00:13:00 80° 49° (NE) 633 3.6 -20.4°
Enters shadow 00:14:59 33° 132° (SE) 1,045 4.4 -20.3°
